Malaga, Spain

11:06 PM CEST on April 28, 2017 (GMT +0200)
Malaga

Weather History for LEMG - February, 2013

Change the Weather History Date:

Tuesday, February 12, 2013

  Actual Average Record
Temperature  
Mean Temperature 52 °F -  
Max Temperature 59 °F 63 °F 74 °F (2016)
Min Temperature 46 °F 46 °F 39 °F (2005)
Degree Days  
Heating Degree Days 12    
Growing Degree Days 2 (Base 50)    
Moisture  
Dew Point 34 °F    
Average Humidity 51    
Maximum Humidity 71    
Minimum Humidity 34    
Precipitation  
Precipitation 0.00 in 0.09 in - ()
Sea Level Pressure  
Sea Level Pressure 30.08 in    
Wind  
Wind Speed 14 mph ()    
Max Wind Speed 28 mph    
Max Gust Speed 39 mph    
Visibility 6.9 miles    
Events      
Averages and records for this station are not official NWS values.
T = Trace of Precipitation, MM = Missing Value Source: Averaged Metar Reports

Daily Weather History Graph

Daily Weather History Graph

Search for Another Location

Airport or City:

Trip Planner

Search our weather history database for the weather conditions in past years. The results will help you decide how hot, cold, wet, or windy it might be!

Date:

Astronomy

Feb. 12, 2013 Rise Set
Actual Time 8:09 AM CET 6:55 PM CET
Civil Twilight 7:42 AM CET 7:22 PM CET
Nautical Twilight 7:12 AM CET 7:52 PM CET
Astronomical Twilight 6:42 AM CET 8:22 PM CET
Moon 9:04 AM CET (2/12) 9:35 PM CET (2/12)
Length of Visible Light 11h 39m
Length of Day
10h 46m
Waxing Crescent, 6% of the Moon is Illuminated
Feb 12
Waxing Crescent
Feb 17
First Quarter
Feb 25
Full
Mar 4
Last Quarter
Mar 11
New

Hourly Weather History & Observations

Time (CET) Temp. Windchill Dew Point Humidity Pressure Visibility Wind Dir Wind Speed Gust Speed Precip Events Conditions
12:00 AM 50.0 °F - 33.8 °F 54% 30.09 in 6.2 mi West 12.7 mph - N/A   Partly Cloudy
12:30 AM 48.2 °F - 33.8 °F 58% 30.06 in 6.2 mi WNW 13.8 mph - N/A   Partly Cloudy
1:00 AM 50 °F - 34 °F 42% 30.10 in 16 mi WNW 16.1 mph - -  
1:00 AM 50.0 °F - 33.8 °F 54% 30.09 in - WNW 16.1 mph 29.9 mph N/A   Clear
1:30 AM 48.2 °F - 33.8 °F 58% 30.09 in - WNW 17.3 mph - N/A   Clear
2:00 AM 48.2 °F - 35.6 °F 62% 30.06 in - WNW 16.1 mph - N/A   Clear
2:30 AM 48.2 °F - 33.8 °F 58% 30.06 in - WNW 15.0 mph - N/A   Clear
3:00 AM 46.4 °F 40.7 °F 35.6 °F 66% 30.06 in - WNW 12.7 mph - N/A   Clear
3:30 AM 46.4 °F 40.7 °F 35.6 °F 66% 30.06 in - WNW 12.7 mph - N/A   Clear
4:00 AM 46.4 °F 41.5 °F 35.6 °F 66% 30.06 in - WNW 10.4 mph - N/A   Clear
4:30 AM 48.2 °F - 35.6 °F 62% 30.06 in - WNW 11.5 mph - N/A   Clear
5:00 AM 46.4 °F 40.7 °F 35.6 °F 66% 30.06 in - WNW 12.7 mph - N/A   Clear
5:30 AM 46.4 °F 40.4 °F 35.6 °F 66% 30.06 in - WNW 13.8 mph - N/A   Clear
6:00 AM 46.4 °F 41.1 °F 37.4 °F 71% 30.04 in - West 11.5 mph - N/A   Clear
6:30 AM 46.4 °F 41.5 °F 37.4 °F 71% 30.04 in - WNW 10.4 mph - N/A   Clear
7:00 AM 46 °F - 36 °F 59% 30.07 in 16 mi West 9.2 mph - -   Scattered Clouds
7:00 AM 46.4 °F 41.9 °F 35.6 °F 66% 30.04 in - West 9.2 mph - N/A   Clear
7:30 AM 46.4 °F 41.5 °F 37.4 °F 71% 30.04 in - WNW 10.4 mph - N/A   Clear
8:00 AM 46.4 °F 41.1 °F 37.4 °F 71% 30.04 in 6.2 mi WNW 11.5 mph - N/A   Scattered Clouds
8:30 AM 48.2 °F - 37.4 °F 66% 30.04 in 6.2 mi WNW 11.5 mph - N/A   Scattered Clouds
9:00 AM 50.0 °F - 37.4 °F 62% 30.06 in 6.2 mi NW 8.1 mph - N/A   Scattered Clouds
9:30 AM 51.8 °F - 37.4 °F 58% 30.06 in 6.2 mi NW 9.2 mph - N/A   Partly Cloudy
10:00 AM 53.6 °F - 37.4 °F 54% 30.06 in 6.2 mi NW 13.8 mph 27.6 mph N/A   Partly Cloudy
10:30 AM 53.6 °F - 37.4 °F 54% 30.06 in 6.2 mi NW 15.0 mph - N/A   Partly Cloudy
11:00 AM 53.6 °F - 37.4 °F 54% 30.06 in 6.2 mi NW 17.3 mph 29.9 mph N/A   Scattered Clouds
11:30 AM 55.4 °F - 37.4 °F 51% 30.06 in 6.2 mi NW 18.4 mph 31.1 mph N/A   Scattered Clouds
12:00 PM 55.4 °F - 35.6 °F 47% 30.06 in 6.2 mi NW 21.9 mph 36.8 mph N/A   Partly Cloudy
12:30 PM 55.4 °F - 35.6 °F 47% 30.06 in 6.2 mi NW 23.0 mph 35.7 mph N/A   Partly Cloudy
1:00 PM 57 °F - 37 °F 36% 30.09 in 25 mi NW 24.2 mph - -   Mostly Cloudy
1:00 PM 57.2 °F - 33.8 °F 41% 30.06 in 6.2 mi NW 24.2 mph 38.0 mph N/A   Scattered Clouds
1:30 PM 57.2 °F - 35.6 °F 44% 30.06 in 6.2 mi NW 24.2 mph 39.1 mph N/A   Scattered Clouds
2:00 PM 57.2 °F - 32.0 °F 38% 30.06 in 6.2 mi NNW 26.5 mph - N/A   Scattered Clouds
2:30 PM 57.2 °F - 32.0 °F 38% 30.06 in 6.2 mi NNW 27.6 mph 39.1 mph N/A   Scattered Clouds
3:00 PM 57.2 °F - 33.8 °F 41% 30.06 in 6.2 mi NNW 20.7 mph 33.4 mph N/A   Scattered Clouds
3:30 PM 57.2 °F - 32.0 °F 38% 30.06 in 6.2 mi NW 17.3 mph - N/A   Partly Cloudy
4:00 PM 59.0 °F - 30.2 °F 34% 30.06 in 6.2 mi NW 19.6 mph 34.5 mph N/A   Partly Cloudy
4:30 PM 59.0 °F - 32.0 °F 36% 30.06 in 6.2 mi NW 19.6 mph 33.4 mph N/A   Partly Cloudy
5:00 PM 59.0 °F - 30.2 °F 34% 30.09 in 6.2 mi NW 11.5 mph - N/A   Partly Cloudy
5:30 PM 59.0 °F - 30.2 °F 34% 30.09 in 6.2 mi NW 15.0 mph 26.5 mph N/A   Partly Cloudy
6:00 PM 57.2 °F - 30.2 °F 36% 30.09 in 6.2 mi NW 19.6 mph 31.1 mph N/A   Partly Cloudy
6:30 PM 55.4 °F - 32.0 °F 41% 30.09 in 6.2 mi WNW 16.1 mph - N/A   Partly Cloudy
7:00 PM 56 °F - 36 °F 35% 30.14 in 25 mi WNW 16.1 mph - -   Scattered Clouds
7:00 PM 55.4 °F - 32.0 °F 41% 30.12 in 6.2 mi WNW 19.6 mph - N/A   Partly Cloudy
7:30 PM 53.6 °F - 32.0 °F 44% 30.12 in - NW 13.8 mph - N/A   Clear
8:00 PM 53.6 °F - 30.2 °F 41% 30.15 in - West 12.7 mph - N/A   Clear
8:30 PM 53.6 °F - 30.2 °F 41% 30.15 in - WNW 13.8 mph - N/A   Clear
9:00 PM 53.6 °F - 30.2 °F 41% 30.15 in - West 13.8 mph - N/A   Clear
9:30 PM 53.6 °F - 30.2 °F 41% 30.15 in - West 17.3 mph - N/A   Clear
10:00 PM 51.8 °F - 32.0 °F 47% 30.15 in - West 17.3 mph - N/A   Clear
10:30 PM 51.8 °F - 32.0 °F 47% 30.18 in - West 15.0 mph - N/A   Clear
11:00 PM 51.8 °F - 32.0 °F 47% 30.18 in - West 12.7 mph - N/A   Clear
11:30 PM 51.8 °F - 32.0 °F 47% 30.18 in - West 11.5 mph - N/A   Clear